Location: Cuzcurrita-R�o Tir�n
(42.5415°N, 2.9642°W)
Time: 01:54:34
(UTC+00:00)

ATLAS 2AS CENTAUR R/B - Pass Details

Date: 27 February 2020
Orbit: 929 x 1283 km, 63.7° (Epoch: 03 April)

Event Time Altitude Azimuth Distance (km) Brightness Sun altitude
Rises 19:45:37 0° 179° (S) 4,148 5.7 -20.5°
Reaches altitude 10° 19:48:40 10° 169° (S) 3,220 5.0 -21.1°
Enters shadow 19:53:43 29° 132° (SE) 2,132 3.8 -22.0°
